Location: Unspecified
(0.0000°N, 0.0000°E)
Time: 14:51:12
(UTC+00:00)

Altair - Pass Details

Date: 31 October 2021
Orbit: 1502 x 1682 km, 47.2° (Epoch: 26 November)

Event Time Altitude Azimuth Distance (km) Brightness Sun altitude
Rises 19:01:18 0° 185° (S) 4,742 10.3 -18.8°
Reaches altitude 10° 19:07:51 10° 153° (SSE) 3,710 9.4 -20.4°
Maximum altitude 19:10:22 11° 136° (SE) 3,596 9.2 -21.0°
Enters shadow 19:12:04 11° 125° (SE) 3,631 9.1 -21.4°
Drops below altitude 10° 19:12:52 10° 120° (ESE) 3,680 - -21.6°
Sets 19:19:11 0° 88° (E) 4,635 - -23.1°
